EHI
0 0 0 0 0 0 0 0 0 0 0 0 0 0 0 0 0 0 0 0 0 0 0 0 0 0 0 0 1 2 3 2 1 0 0 0 0 0 0 0 0 0 0 0
0 0 0 0 0 0 0 0 0 0 0 0 0 0 0 0 0 0 0 0 0 0 0 0 0 0 0 1 2 2 3 2 1 1 0 0 0 0 1 1 1 0 0 0
0 0 0 0 0 0 0 0 0 0 0 0 0 0 0 0 0 0 0 0 0 0 0 0 0 0 0 1 2 2 2 3 3 2 1 1 1 1 2 2 2 1 0 0
0 0 0 0 0 0 0 0 0 0 0 0 0 0 0 0 0 0 0 0 0 0 0 0 0 0 0 0 1 1 2 3 3 3 2 2 2 3 3 3 2 1 0 0
0 0 0 0 0 0 0 0 0 0 0 0 0 0 0 0 0 0 0 0 0 0 0 0 0 0 0 0 0 1 3 3 2 2 2 2 3 3 3 3 2 1 0 0
0 0 0 0 0 0 0 0 0 0 0 0 0 0 0 0 0 0 0 0 0 0 0 0 0 0 0 0 0 2 3 3 2 2 2 2 2 2 2 1 1 0 0 0
0 0 0 0 0 0 0 0 0 0 0 0 0 0 0 0 0 0 0 0 0 0 0 0 0 0 0 0 0 1 2 2 3 3 2 2 1 1 1 0 0 0 0 0
0 0 0 0 0 0 0 0 0 0 0 0 0 0 0 0 0 0 0 0 0 0 0 0 0 0 0 0 0 0 1 1 2 2 1 1 1 1 0 0 0 0 0 0
0 0 0 0 0 0 0 0 0 0 0 0 0 0 0 0 0 0 0 0 0 0 0 0 0 0 0 0 0 0 0 0 1 1 0 0 0 0 0 0 0 0 0 0
0 0 0 0 0 0 0 0 0 0 0 0 0 0 0 0 0 0 0 0 0 0 0 0 0 0 0 0 0 0 0 0 0 0 0 0 0 0 0 0 0 0 0 0
0 0 0 0 0 0 0 0 0 0 0 0 0 0 0 0 0 0 0 0 0 0 0 0 0 0 0 0 0 0 0 0 0 0 0 0 0 0 0 0 0 0 0 0
0 0 0 0 0 0 0 0 0 0 0 0 0 0 0 0 0 0 0 0 0 0 0 0 0 0 0 0 0 0 0 0 0 0 0 0 0 0 0 0 0 0 0 0
0 0 0 0 0 0 0 0 0 0 0 0 0 0 0 0 0 0 0 0 0 0 0 0 0 0 0 0 0 0 0 0 0 0 0 0 0 0 0 0 0 0 0 0
0 0 0 0 0 0 0 0 0 0 0 0 0 0 0 0 0 0 0 0 0 0 0 0 0 0 0 0 0 0 0 0 0 0 0 0 0 0 0 0 0 0 0 0
0 0 0 0 0 0 0 0 0 0 0 0 0 0 0 0 0 0 0 0 0 0 0 0 0 0 0 0 0 0 0 0 0 0 0 0 0 0 0 0 0 0 0 0
0 0 0 0 0 0 0 0 0 0 0 0 0 0 0 0 0 0 0 0 0 0 0 0 0 0 0 0 0 0 0 0 0 0 0 0 0 0 0 0 0 0 0 0
0 0 0 0 0 0 0 0 0 0 0 0 0 0 0 0 0 0 0 0 0 0 0 0 0 0 0 0 0 0 0 0 0 0 0 0 0 0 0 0 0 0 0 0
0 0 0 0 0 0 0 0 0 0 0 0 0 0 0 0 0 0 0 0 0 0 0 0 0 0 0 0 0 0 0 0 0 0 0 0 0 0 0 0 0 0 0 0
0 0 0 0 0 0 0 0 0 0 0 0 0 0 0 0 0 0 0 0 0 0 0 0 0 0 0 0 0 0 0 0 0 0 0 0 0 0 0 0 0 0 0 0
0 0 0 0 0 0 0 0 0 0 0 0 0 0 0 0 0 0 0 0 0 0 0 0 0 0 0 0 0 0 0 0 0 0 0 0 0 0 0 0 0 0 0 0
0 0 0 0 0 0 0 0 0 0 0 0 0 0 0 0 0 0 0 0 0 0 0 0 0 0 0 0 0 0 0 0 0 0 0 0 0 0 0 0 0 0 0 0
0 0 0 0 0 0 0 0 0 0 0 0 0 0 0 0 0 0 0 0 0 0 0 0 0 0 0 0 0 0 0 0 0 0 0 0 0 0 0 0 0 0 0 0
0 0 0 0 0 0 0 0 0 0 0 0 0 0 0 0 0 0 0 0 0 0 0 0 0 0 0 0 0 0 0 0 0 0 0 0 0 0 0 0 0 0 0 0
0 0 0 0 0 0 0 0 0 0 0 0 0 0 0 0 0 0 0 0 0 0 0 0 0 0 0 0 0 0 0 0 0 0 0 0 0 0 0 0 0 0 0 0
0 0 0 0 0 0 0 0 0 0 0 0 0 0 0 0 0 0 0 0 0 0 0 0 0 0 0 0 0 0 0 0 0 0 0 0 0 0 0 0 0 0 0 0
0 0 0 0 0 0 0 0 0 0 0 0 0 0 0 0 0 0 0 0 0 0 0 0 0 0 0 0 0 0 0 0 0 0 0 0 0 0 0 0 0 0 0 0
0 0 0 0 0 0 0 0 0 0 0 0 0 0 0 0 0 0 0 0 0 0 0 0 0 0 0 0 0 0 0 0 0 0 0 0 0 0 0 0 0 0 0 0
Wind_Speed
6 4 5 8 8 9 11 12 11 10 9 8 5 4 3 3 3 3 4 4 4 4 4 5 5 5 5 5 4 4 4 4 3 3 3 2 2 2 2 2 2 2 2 2
6 6 7 10 10 11 12 12 13 12 11 6 3 3 3 3 4 4 3 3 3 4 4 5 5 5 5 5 5 5 5 4 3 3 3 3 2 2 2 2 2 2 2 3
6 4 7 10 9 10 10 9 10 11 7 3 3 3 3 3 4 3 3 3 3 4 3 4 4 5 5 5 5 5 5 4 4 4 3 3 3 3 3 3 3 3 3 3
4 5 9 1 1 4 7 8 9 8 5 3 3 2 3 2 3 3 3 3 2 3 3 3 3 4 4 4 5 5 5 5 4 4 4 4 4 4 4 3 3 3 3 3
5 6 7 4 3 4 6 6 5 6 5 3 1 3 3 1 1 2 2 2 2 2 2 3 3 3 4 4 4 5 5 5 5 5 4 4 4 4 4 3 3 3 3 3
6 6 6 1 4 2 5 6 2 3 3 3 3 5 1 1 1 2 1 1 1 1 2 2 2 3 4 4 4 4 4 4 4 5 5 5 5 4 3 3 3 3 3 3
9 8 6 1 3 4 6 1 3 2 2 3 4 3 3 1 1 1 0 0 0 1 2 2 2 3 4 4 4 4 4 4 4 4 4 4 4 3 3 3 3 3 3 3
7 8 5 4 5 5 2 3 1 1 2 3 2 2 1 1 1 1 1 0 1 1 1 2 3 4 4 4 3 3 3 4 4 4 3 3 4 3 3 3 3 3 3 3
6 4 2 3 3 2 2 2 2 2 2 2 3 3 2 2 2 2 2 1 1 1 2 2 3 4 4 3 3 3 3 4 4 4 3 3 4 4 3 3 3 3 3 3
6 6 5 5 5 4 4 4 3 3 3 4 4 4 4 3 2 2 2 2 2 2 3 2 2 3 4 3 3 3 4 3 3 3 3 3 3 3 3 3 3 3 3 3
9 7 5 6 6 5 4 3 3 3 4 4 4 4 4 4 4 3 3 3 2 3 3 3 3 3 3 3 3 4 3 3 3 3 3 3 3 3 3 3 3 3 3 3
8 6 7 6 4 4 4 4 4 4 4 4 4 5 4 4 4 4 4 3 3 3 3 3 2 2 2 2 3 4 4 3 3 3 3 3 3 2 1 2 2 3 3 4
8 6 6 6 4 4 4 4 4 4 5 4 4 4 5 4 4 4 4 4 4 3 3 2 2 2 2 2 3 4 4 3 3 3 3 3 3 3 3 2 2 3 2 3
5 4 5 5 4 4 4 3 3 3 4 4 4 4 4 4 4 4 4 4 4 4 3 3 3 3 2 2 3 4 4 4 4 3 3 3 3 3 3 3 3 2 2 3
7 7 6 4 3 3 3 3 3 3 3 3 3 4 4 4 4 4 4 3 3 4 3 3 3 3 2 3 4 4 3 3 3 3 3 3 3 3 3 4 3 2 2 2
5 4 5 5 5 4 4 4 4 4 4 4 4 4 4 4 4 4 3 3 4 4 3 3 3 3 3 3 4 3 3 3 4 3 3 3 3 3 3 3 3 3 3 2
6 6 6 6 5 5 5 5 4 4 4 4 4 4 3 3 3 3 3 3 3 4 3 4 3 3 3 4 4 3 3 4 5 4 4 4 3 3 3 3 3 3 3 2
7 7 7 7 6 6 5 5 4 4 4 3 3 3 4 3 3 3 3 3 3 3 3 3 3 3 4 4 4 3 4 3 4 4 4 4 4 4 4 4 4 4 3 3
6 6 6 6 6 5 5 5 4 4 3 3 3 4 4 4 3 3 3 3 3 3 3 2 3 4 4 4 4 4 4 4 4 4 4 4 4 4 4 4 4 4 3 3
4 4 4 4 4 4 4 4 4 3 4 3 3 3 3 3 3 3 3 3 3 2 2 3 3 4 4 4 4 4 4 4 4 4 4 4 4 4 4 4 4 4 4 3
3 3 4 4 4 4 4 4 4 4 4 4 4 4 4 3 3 3 3 3 2 2 2 3 3 3 3 3 4 4 4 4 4 4 4 4 4 4 4 4 4 4 4 4
3 3 3 3 3 3 3 3 4 4 4 4 4 3 3 3 3 3 3 2 2 2 2 2 2 2 3 3 3 4 4 4 4 4 4 4 4 4 4 4 4 4 4 4
3 3 3 3 3 3 3 3 3 3 4 3 3 3 3 3 2 2 2 2 1 2 2 2 2 3 3 3 3 3 4 4 4 4 4 4 4 4 4 4 4 4 4 4
2 3 3 2 2 3 3 3 2 2 3 3 3 3 2 2 2 2 2 1 2 2 2 1 2 3 3 2 3 3 3 3 4 4 4 4 4 4 4 4 4 4 4 4
2 2 2 2 3 3 2 2 2 2 2 1 2 2 2 2 2 1 1 1 1 2 1 1 2 2 2 1 2 2 2 3 3 3 3 3 3 3 4 4 4 4 4 4
2 2 2 3 3 2 2 2 2 2 2 1 1 1 1 1 1 1 1 1 1 1 1 0 1 1 1 1 1 2 2 2 2 2 2 3 3 3 3 3 4 4 4 4
2 2 2 2 2 2 2 3 3 2 2 2 2 1 1 1 1 1 1 1 1 1 0 0 0 1 1 1 1 1 1 1 2 2 2 2 3 3 3 4 3 3 3 3
Wind_Direction
264 274 259 253 245 230 235 249 261 267 268 272 278 268 246 218 201 198 197 199 200 202 202 198 198 203 203 202 198 195 200 208 210 210 209 217 216 229 241 247 256 271 282 286
251 249 249 253 248 241 241 250 255 264 269 279 288 269 240 221 209 209 206 205 206 206 207 207 203 205 206 205 202 201 203 205 200 211 208 216 227 233 241 248 253 260 272 282
258 256 258 250 239 232 233 234 244 254 265 257 239 252 251 238 226 229 228 220 214 212 215 214 211 209 210 207 202 205 209 208 200 206 211 219 228 234 237 244 250 255 265 272
253 246 245 278 101 238 239 245 250 257 264 256 270 290 275 254 242 251 246 240 238 230 222 219 211 207 202 199 202 207 211 210 207 208 212 217 226 232 237 239 240 249 258 266
237 251 265 244 203 213 235 246 243 241 242 236 220 230 221 220 247 257 254 250 239 234 231 214 201 193 192 199 205 209 212 214 212 212 215 218 225 233 236 240 243 245 249 256
229 246 256 174 139 197 247 241 174 227 232 216 219 246 232 127 248 259 268 264 243 230 217 214 202 191 200 206 214 219 220 223 221 221 221 224 227 232 232 235 246 250 247 254
234 244 259 93 142 191 232 330 107 214 234 222 244 305 13 16 259 299 322 318 221 223 228 223 217 209 218 224 232 235 232 224 217 222 225 226 227 226 224 225 237 245 247 253
224 234 242 125 170 219 322 39 136 227 244 241 267 314 317 282 260 261 276 259 234 244 254 240 227 225 233 243 247 232 223 220 216 220 221 218 214 216 215 214 223 239 249 255
229 249 32 164 225 289 307 272 267 249 255 249 255 264 270 266 263 254 253 249 253 265 269 249 233 237 245 250 240 223 220 220 220 218 216 213 209 208 209 216 229 236 244 253
246 247 247 244 244 250 259 264 269 259 258 250 254 260 260 258 257 256 250 245 248 255 262 260 250 244 250 245 225 220 223 222 220 217 213 210 211 214 218 222 230 239 245 253
248 252 253 242 240 243 255 262 265 269 269 263 260 262 259 255 252 249 244 242 244 251 261 267 259 248 240 225 215 219 222 217 216 215 211 209 211 221 229 233 248 249 251 253
255 260 258 262 249 240 243 253 261 269 275 272 265 264 262 261 258 252 248 247 248 252 259 264 256 250 242 225 220 218 216 213 212 212 212 211 210 213 219 242 246 263 282 277
271 281 277 276 258 241 246 257 264 267 266 268 266 262 260 260 258 251 246 246 246 249 253 255 253 251 241 224 227 223 220 215 211 216 218 214 214 215 216 210 213 229 239 250
245 245 250 245 245 237 239 245 257 266 266 263 261 262 259 256 255 250 248 247 245 243 243 243 248 252 244 221 224 230 227 220 222 223 223 220 221 223 226 226 223 224 214 217
234 238 240 240 230 223 219 223 238 256 266 266 263 260 254 254 256 257 253 246 238 236 236 236 238 248 242 229 227 229 228 223 223 227 224 224 226 227 228 230 233 229 225 213
224 227 222 220 219 223 227 231 243 257 266 268 267 265 264 264 264 257 243 232 231 234 237 239 244 249 244 237 231 229 223 222 232 230 221 217 221 225 228 229 229 226 227 229
213 217 218 222 225 230 235 241 247 251 260 263 268 273 268 262 254 248 244 239 241 245 244 243 248 250 245 241 234 229 221 212 214 227 226 222 222 224 224 227 230 227 221 217
229 231 229 227 225 230 238 245 248 251 260 266 273 266 255 248 247 252 252 247 244 243 244 247 249 247 243 239 235 229 224 221 218 225 224 221 223 223 223 227 229 227 222 205
228 230 233 232 228 227 234 240 244 248 254 258 261 258 255 253 250 246 238 234 239 248 260 266 259 251 246 237 234 225 223 221 221 223 222 220 222 224 225 228 231 231 223 215
222 225 224 224 224 228 235 237 239 240 245 247 249 250 248 252 248 237 229 235 248 267 276 277 262 255 248 231 221 227 224 223 223 223 222 224 224 223 226 229 230 230 226 224
216 212 211 216 226 234 237 238 239 243 243 239 242 247 246 246 242 233 233 249 270 288 277 265 263 257 247 234 220 229 226 227 228 227 224 223 222 222 223 227 230 230 231 231
221 216 219 225 233 242 247 250 247 244 242 241 244 244 243 244 239 236 245 258 271 282 273 262 268 272 269 245 233 232 229 229 232 231 227 225 227 228 227 228 230 230 232 232
239 236 233 236 243 253 264 259 246 241 243 242 238 237 242 250 245 239 259 278 269 270 277 270 285 284 270 248 241 237 235 234 234 234 232 231 232 234 235 233 233 232 233 231
254 250 247 242 237 237 247 259 263 257 250 250 242 239 241 244 250 253 271 245 256 265 270 274 272 278 271 250 241 240 241 243 242 239 237 236 236 237 240 240 237 234 233 233
258 256 245 233 234 239 243 253 262 250 246 247 249 252 256 255 256 274 277 249 235 247 261 253 272 287 274 262 257 254 254 253 252 245 239 242 242 239 238 239 238 235 232 232
254 255 254 251 256 251 240 233 232 235 241 248 257 258 263 256 242 239 242 235 217 238 288 290 274 274 281 281 281 281 272 257 246 245 249 250 244 241 240 239 240 240 240 239
252 255 254 256 253 240 233 232 232 238 241 241 245 236 237 231 215 209 222 236 210 201 257 288 278 281 283 282 284 292 295 289 276 272 267 263 255 247 245 245 245 243 244 244